Retour au catalogue

THOR AGENA D R/B

ActifPO
NORAD 2255·ROCKET BODY·🇺🇸 United States

Lancé Jun 24, 1966 depuis Vandenberg Space Force Base

Loading…

Prochains Passages (prochaines 24 heures)

TLE

FraisSource: Space-Track

Époque: Sep 14, 2026, 04:45 UTC

1 02255U 66056B   26257.19812736  .00000002  00000-0  19253-3 0  9991
2 02255  86.9845 171.2087 0047507  27.8170 332.5164  7.94755977747394

Suivez THOR AGENA D R/B en temps réel avec AllMySat

Download on the App Store